• In Uzbekistan
  • List of Countries
  • For 7 days
  • Water Temperature
  • Satellite Maps
  • Weather Map
  • Weather Widgets
  • user-avatar
    Login

    Hourly Weather Bad Rothenfelde

    Today, 23 February, Saturday

    Time Temperature Precipitation Wind Pressure Humidity
    00:00 +2°C° 0 mm 3 mps 770 mmHg 86%
    01:00 +2°C° 0 mm 3 mps 770 mmHg 93%
    02:00 +2°C° 0 mm 3 mps 770 mmHg 90%
    03:00 +2°C° 0 mm 3 mps 769 mmHg 88%
    04:00 +1°C° 0 mm 3 mps 769 mmHg 85%
    05:00 +1°C° 0 mm 3 mps 769 mmHg 83%
    06:00 0°C° 0 mm 3 mps 769 mmHg 80%
    07:00 -1°C° 0 mm 3 mps 770 mmHg 78%
    08:00 0°C° 0 mm 3 mps 770 mmHg 73%
    09:00 +2°C° 0 mm 3 mps 769 mmHg 69%
    10:00 +3°C° 0 mm 3 mps 769 mmHg 64%
    11:00 +4°C° 0 mm 3 mps 769 mmHg 58%
    12:00 +7°C° 0 mm 3 mps 769 mmHg 52%
    13:00 +8°C° 0 mm 2 mps 769 mmHg 47%
    14:00 +9°C° 0 mm 3 mps 769 mmHg 46%
    15:00 +9°C° 0 mm 3 mps 768 mmHg 45%
    16:00 +10°C° 0 mm 3 mps 768 mmHg 44%
    17:00 +8°C° 0 mm 3 mps 768 mmHg 47%
    18:00 +7°C° 0 mm 3 mps 768 mmHg 51%
    19:00 +6°C° 0 mm 2 mps 768 mmHg 54%
    20:00 +5°C° 0 mm 2 mps 768 mmHg 54%
    21:00 +5°C° 0 mm 2 mps 768 mmHg 54%
    22:00 +4°C° 0 mm 2 mps 768 mmHg 54%
    23:00 +4°C° 0 mm 2 mps 768 mmHg 53%

    Tomorrow, 24 February, Sunday

    Time Temperature Precipitation Wind Pressure Humidity
    00:00 +4°C° 0 mm 2 mps 768 mmHg 53%
    01:00 +3°C° 0 mm 2 mps 768 mmHg 52%
    02:00 +3°C° 0 mm 2 mps 768 mmHg 50%
    03:00 +4°C° 0 mm 1 mps 768 mmHg 48%
    04:00 +4°C° 0 mm 1 mps 768 mmHg 47%
    05:00 +4°C° 0 mm 1 mps 768 mmHg 45%
    06:00 +4°C° 0 mm 1 mps 768 mmHg 44%
    07:00 +3°C° 0 mm 1 mps 768 mmHg 42%
    08:00 +5°C° 0 mm 1 mps 768 mmHg 40%
    09:00 +6°C° 0 mm 1 mps 768 mmHg 38%
    10:00 +6°C° 0 mm 0 mps 768 mmHg 36%
    11:00 +8°C° 0 mm 0 mps 768 mmHg 34%
    12:00 +9°C° 0 mm 0 mps 769 mmHg 31%
    13:00 +11°C° 0 mm 0 mps 769 mmHg 28%
    14:00 +11°C° 0 mm 0 mps 768 mmHg 29%
    15:00 +12°C° 0 mm 0 mps 768 mmHg 30%
    16:00 +12°C° 0 mm 0 mps 768 mmHg 31%
    17:00 +10°C° 0 mm 0 mps 768 mmHg 34%
    18:00 +10°C° 0 mm 1 mps 768 mmHg 37%
    19:00 +9°C° 0 mm 1 mps 768 mmHg 40%
    20:00 +8°C° 0 mm 1 mps 768 mmHg 41%
    21:00 +8°C° 0 mm 1 mps 768 mmHg 42%
    22:00 +8°C° 0 mm 1 mps 768 mmHg 43%
    23:00 +7°C° 0 mm 1 mps 769 mmHg 45%

    Day after tomorrow, 25 February, Monday

    Time Temperature Precipitation Wind Pressure Humidity
    00:00 +7°C° 0 mm 1 mps 769 mmHg 46%
    01:00 +5°C° 0 mm 0 mps 769 mmHg 48%
    02:00 +5°C° 0 mm 0 mps 769 mmHg 49%
    03:00 +6°C° 0 mm 1 mps 769 mmHg 50%
    04:00 +6°C° 0 mm 1 mps 768 mmHg 52%
    05:00 +4°C° 0 mm 0 mps 768 mmHg 53%
    06:00 +4°C° 0 mm 0 mps 768 mmHg 54%
    07:00 +4°C° 0 mm 0 mps 768 mmHg 55%
    08:00 +5°C° 0 mm 0 mps 769 mmHg 52%
    09:00 +6°C° 0 mm 0 mps 769 mmHg 50%
    10:00 +8°C° 0 mm 0 mps 769 mmHg 47%
    11:00 +10°C° 0 mm 1 mps 769 mmHg 44%
    12:00 +12°C° 0 mm 1 mps 769 mmHg 40%
    13:00 +13°C° 0 mm 1 mps 769 mmHg 37%
    14:00 +12°C° 0 mm 0 mps 769 mmHg 37%
    15:00 +13°C° 0 mm 0 mps 768 mmHg 37%
    16:00 +13°C° 0 mm 0 mps 768 mmHg 38%
    17:00 +12°C° 0 mm 0 mps 768 mmHg 41%
    18:00 +10°C° 0 mm 0 mps 768 mmHg 44%
    19:00 +9°C° 0 mm 1 mps 768 mmHg 48%
    20:00 +9°C° 0 mm 1 mps 768 mmHg 49%
    21:00 +7°C° 0 mm 0 mps 768 mmHg 49%
    22:00 +7°C° 0 mm 0 mps 768 mmHg 50%
    23:00 +6°C° 0 mm 0 mps 768 mmHg 51%

    26 February, Tuesday

    Time Temperature Precipitation Wind Pressure Humidity
    00:00 +6°C° 0 mm 0 mps 768 mmHg 52%
    01:00 +6°C° 0 mm 0 mps 768 mmHg 52%
    02:00 +5°C° 0 mm 0 mps 767 mmHg 53%
    03:00 +5°C° 0 mm 0 mps 767 mmHg 54%
    04:00 +5°C° 0 mm 0 mps 767 mmHg 55%
    05:00 +4°C° 0 mm 0 mps 767 mmHg 55%
    06:00 +4°C° 0 mm 0 mps 767 mmHg 56%
    07:00 +4°C° 0 mm 0 mps 767 mmHg 56%
    08:00 +5°C° 0 mm 0 mps 767 mmHg 54%
    09:00 +7°C° 0 mm 0 mps 767 mmHg 51%
    10:00 +8°C° 0 mm 0 mps 767 mmHg 49%
    11:00 +11°C° 0 mm 1 mps 767 mmHg 45%
    12:00 +12°C° 0 mm 1 mps 767 mmHg 41%
    13:00 +14°C° 0 mm 1 mps 767 mmHg 37%
    14:00 +14°C° 0 mm 1 mps 767 mmHg 37%
    15:00 +14°C° 0 mm 1 mps 766 mmHg 37%
    16:00 +15°C° 0 mm 1 mps 766 mmHg 38%
    17:00 +13°C° 0 mm 1 mps 766 mmHg 41%
    18:00 +10°C° 0 mm 0 mps 766 mmHg 45%
    19:00 +9°C° 0 mm 0 mps 766 mmHg 49%
    20:00 +8°C° 0 mm 0 mps 766 mmHg 50%
    21:00 +8°C° 0 mm 0 mps 766 mmHg 52%
    22:00 +7°C° 0 mm 0 mps 766 mmHg 53%
    23:00 +7°C° 0 mm 0 mps 766 mmHg 53%

    27 February, Wednesday

    Time Temperature Precipitation Wind Pressure Humidity
    00:00 +8°C° 0 mm 1 mps 766 mmHg 54%
    01:00 +7°C° 0 mm 1 mps 765 mmHg 54%
    02:00 +7°C° 0 mm 1 mps 765 mmHg 54%
    03:00 +7°C° 0 mm 1 mps 764 mmHg 53%
    04:00 +7°C° 0 mm 1 mps 764 mmHg 53%
    05:00 +6°C° 0 mm 1 mps 764 mmHg 52%
    06:00 +6°C° 0 mm 1 mps 764 mmHg 52%
    07:00 +6°C° 0 mm 1 mps 763 mmHg 51%
    08:00 +7°C° 0 mm 1 mps 763 mmHg 49%
    09:00 +9°C° 0 mm 1 mps 763 mmHg 47%
    10:00 +10°C° 0 mm 1 mps 763 mmHg 45%
    11:00 +12°C° 0 mm 1 mps 763 mmHg 42%
    12:00 +14°C° 0 mm 2 mps 762 mmHg 40%
    13:00 +15°C° 0 mm 2 mps 762 mmHg 37%
    14:00 +16°C° 0 mm 2 mps 761 mmHg 38%
    15:00 +16°C° 0 mm 2 mps 760 mmHg 39%
    16:00 +16°C° 0 mm 3 mps 760 mmHg 40%
    17:00 +13°C° 0 mm 3 mps 759 mmHg 44%
    18:00 +12°C° 0 mm 3 mps 759 mmHg 48%
    19:00 +10°C° 0 mm 3 mps 759 mmHg 52%
    20:00 +10°C° 0 mm 3 mps 759 mmHg 56%
    21:00 +9°C° 0 mm 3 mps 759 mmHg 61%
    22:00 +8°C° 0 mm 4 mps 758 mmHg 66%
    23:00 +7°C° 0 mm 4 mps 758 mmHg 73%

    28 February, Thursday

    Time Temperature Precipitation Wind Pressure Humidity
    00:00 +7°C° 0 mm 4 mps 758 mmHg 81%
    01:00 +7°C° 0 mm 4 mps 757 mmHg 88%
    02:00 +6°C° 0 mm 4 mps 757 mmHg 90%
    03:00 +6°C° 0 mm 4 mps 757 mmHg 93%
    04:00 +6°C° 0 mm 4 mps 757 mmHg 95%
    05:00 +6°C° 0 mm 5 mps 757 mmHg 95%
    06:00 +6°C° 0 mm 5 mps 757 mmHg 94%
    07:00 +7°C° 0 mm 5 mps 757 mmHg 94%
    08:00 +7°C° 0 mm 5 mps 757 mmHg 92%
    09:00 +7°C° 0 mm 5 mps 757 mmHg 90%
    10:00 +7°C° 0 mm 5 mps 758 mmHg 88%
    11:00 +8°C° 0 mm 5 mps 758 mmHg 85%
    12:00 +8°C° 0 mm 5 mps 758 mmHg 81%
    13:00 +9°C° 0 mm 5 mps 759 mmHg 77%
    14:00 +11°C° 0 mm 4 mps 759 mmHg 75%
    15:00 +11°C° 0 mm 4 mps 759 mmHg 72%
    16:00 +11°C° 0 mm 4 mps 759 mmHg 70%
    17:00 +10°C° 0 mm 4 mps 759 mmHg 73%
    18:00 +9°C° 0 mm 3 mps 759 mmHg 76%
    19:00 +8°C° 0 mm 3 mps 760 mmHg 80%
    20:00 +7°C° 0 mm 3 mps 760 mmHg 82%
    21:00 +7°C° 0 mm 2 mps 760 mmHg 85%
    22:00 +6°C° 0 mm 2 mps 760 mmHg 87%
    23:00 +6°C° 0 mm 2 mps 760 mmHg 89%
    Show more